Regional Weather Roundup
Issued by NWS Wakefield, VA

Home | Current Version | Previous Version | Graphics & Text | Print | Product List | Glossary On
Versions: 1 2 3 4 5 6 7 8 9 10 11 12 13 14 15 16 17 18 19 20 21 22 23 24 25 26 27 28 29 30 31 32 33 34 35
000
ASUS41 KAKQ 230910
RWRAKQ

REGIONAL WEATHER ROUNDUP
NATIONAL WEATHER SERVICE WAKEFIELD VA
500 AM EDT THU OCT 23 2014

Note: "fair" indicates few or no clouds below 12,000 feet with no
significant weather and/or obstructions to visibility. * = Denotes
station may not report precipitation (e.g., rain,snow,etc.),
thunder or fog.

VAZ042-051-052>054-056-231000-
NORTHERN VIRGINIA

CITY           SKY/WX    TMP DP  RH WIND       PRES   REMARKS
WASH NATIONAL  CLOUDY    54  41  61 NW20G25   29.89R
DULLES         MOCLDY    50  41  71 NW21G29   29.90S
FORT BELVOIR   CLOUDY    53  42  66 NW16G25   29.89S
QUANTICO       CLOUDY    52  41  66 N13G20    29.92R
FREDERICKSBRG* PTCLDY    52  43  70 NW12G20   29.90R
STAFFORD*      PTCLDY    50  40  68 NW15G22   29.95R
WARRENTON      CLOUDY    53  47  80 NW13G20   29.92R
CULPEPER*      CLEAR     52  43  71 N12       29.93R
MANASSAS*      CLOUDY    52  43  71 NW16G25   29.92R
LEESBURG*      MOCLDY    52  45  76 NW16G33   29.92S
WINCHESTER     CLOUDY    50  37  62 NW15G25   29.96S
FRONT ROYAL*   CLOUDY    50  41  71 NW5       29.97R
LURAY*         CLOUDY    52  43  71 W7        29.98F
$$

VAZ048-049-060>072-079>083-231000-
CENTRAL AND SOUTH CENTRAL VIRGINIA...AND NORTH CENTRAL NORTH CAROLINA

CITY           SKY/WX    TMP DP  RH WIND       PRES   REMARKS
RICHMOND       PTCLDY    50  42  74 W9        29.91S
CHESTERFIELD*  SUNNY    N/A N/A N/A W5        29.93R
PETERSBURG*    CLEAR     46  41  81 W7        29.93S
HANOVER        PTCLDY    46  42  86 W6        29.92S
TAPPAHANNOCK*  CLOUDY    53  40  61 W12G17    29.89S
CHARLOTTSVILLE CLEAR     51  39  63 NW9       29.94R
ORANGE*        CLEAR     45  41  87 CALM      29.94R FOG
LOUISA*        CLEAR     46  41  81 NW7       29.91R
FARMVILLE*     CLEAR     45  39  81 CALM      29.93S
CREWE*         SUNNY     47  40  76 W5        29.94S
FORT PICKETT*  SUNNY     46  41  83 W8        29.94S
LUNENBURG*     SUNNY     45  41  86 CALM      29.95R
SOUTH HILL*    CLEAR     46  45  93 CALM      30.01R
LAWRENCEVILLE* SUNNY     43  42  95 CALM      29.94R
ROANOKE RAPIDS SUNNY     45  41  87 SW3       29.95S
RALEIGH        CLEAR     46  40  79 CALM      30.00F
$$

VAZ088>098-231000-
SOUTHEAST VIRGINIA

CITY           SKY/WX    TMP DP  RH WIND       PRES   REMARKS
NORFOLK        CLOUDY    54  42  64 NW10G23   29.86S
VIRGINIA BEACH CLOUDY    55  44  66 NW22G29   29.85S
NORFOLK NAVAL  CLOUDY    56  43  61 NW15G26   29.88S
WEST POINT*    CLOUDY    55  42  61 W10G16    29.90R
NEWPORT NEWS   CLOUDY    55  43  63 NW12      29.87F
LANGLEY AFB    CLOUDY    53  43  69 NW16G23   29.87S
FORT EUSTIS    CLOUDY    53  41  63 NW17G24   29.86F
WILLIAMSBURG*  CLEAR     54  45  71 NW12G20   29.89S
HR EXEC AP*    CLOUDY    52  43  71 NW7       29.91S
FRANKLIN*      CLEAR     46  45  93 W7        29.92S
WAKEFIELD      CLEAR     48  43  82 W3        29.92R
$$

VAZ020-022-025-037-045-231000-
WEST CENTRAL AND SOUTHWEST VIRGINIA

CITY           SKY/WX    TMP DP  RH WIND       PRES   REMARKS
STAUNTON*      CLEAR     43  37  79 SE5       30.01R
HOT SPRINGS VA CLOUDY    38  36  92 NW22G33   30.01R
LYNCHBURG      CLEAR     45  38  76 SW3       29.99F
DANVILLE       CLEAR     50  39  66 NW9       30.02S
SOUTH BOSTON*  NOT AVBL
MARTINSVILLE   CLEAR     48  39  69 N10       30.05F
ROANOKE        PTCLDY    49  38  65 NW16      30.08S
BLACKSBURG     CLOUDY    45  41  87 NW9       30.11R
DUBLIN*        MOCLDY    46  39  76 NW12      30.12S
MARION*        CLOUDY    45  38  79 W8        30.16R
HILLSVILLE*    CLOUDY    42  37  83 NW15      30.09S
RICHLANDS*     CLOUDY    44  40  85 NW6       30.16S
WISE*          CLOUDY    41  41 100 N8        30.17F
ABINGDON*      CLOUDY    47  39  75 N7        30.16S
$$

MDZ021>025-VAZ099-100-231000-
SOUTHERN MARYLAND AND THE DELMARVA PENINSULA

CITY           SKY/WX    TMP DP  RH WIND       PRES   REMARKS
PATUXENT RIVER CLOUDY    53  43  68 NW22G35   29.83S
BAY BRIDGE APT   N/A     54  45  71 NW18G28   29.83R
LEONARDTOWN    CLOUDY    52  41  66 NW8G18    29.86S
DOVER          CLOUDY    52  46  80 NW16      29.74S
GEORGETOWN     CLOUDY    53  46  77 NW8       29.77S
EASTON         MOCLDY    55  49  81 N17G23    29.85R
CAMBRIDGE      CLOUDY    55  46  71 NW15G26   29.81R VSB<1/4
SALISBURY      CLOUDY    54  47  77 NW16G24   29.78S
OCEAN CITY     CLOUDY    50  48  93 NW10G18   29.74F
WALLOPS ISLAND CLOUDY    52  49  89 NW13      29.79R
ACCOMACK*      DRIZZLE   52  46  82 NW13G26   29.81R
$$

NCZ012>017-030>032-231000-
EASTERN NORTH CAROLINA

CITY           SKY/WX    TMP DP  RH WIND       PRES   REMARKS
ELIZABETH CITY MOCLDY    54  43  66 NW14G21   29.89S
AHOSKIE*       CLEAR     48  42  80 NW3       29.95R
EDENTON*       MOCLDY    52  46  77 NW9       29.92R
CURRITUCK*     MOCLDY    53  43  69 W8G17     29.89R
KILL DEVIL HLS CLOUDY    55  46  71 NW13G23   29.86S
MANTEO         CLOUDY    54  46  72 NW14G25   29.88R
CAPE HATTERAS  CLEAR     54  48  80 NW15G22   29.89R
TARBORO*       SUNNY     47  43  87 W6        29.97R
GOLDSBORO      CLEAR     48  47  95 W8        29.97F
WASHINGTON     CLEAR     48  44  84 CALM      29.96R
GREENVILLE     CLEAR     48  45  87 W5        29.98S
NEW BERN       CLEAR     52  44  74 W8        29.98R
WILMINGTON     CLEAR     48  42  80 NW8       29.99F
$$

VAZ048-231000-
ELSEWHERE

CITY           SKY/WX    TMP DP  RH WIND       PRES   REMARKS
HARRISBURG PA  CLOUDY    53  42  66 N13G29    29.87S
BALTIMORE      CLOUDY    52  42  69 NW10G21   29.85S
ANNAPOLIS      CLOUDY    54  44  69 NW16G22   29.83S
ANDREWS AFB    CLOUDY    52  43  70 NW17      29.87R
WILMINGTON DE  CLOUDY    53  45  74 NW21G29   29.78S
PHILADELPHIA   CLOUDY    53  45  74 NW17      29.76R
WILDWOOD NJ*   CLOUDY    52  46  82 NW12G21   29.73R
ATLANTIC CITY  CLOUDY    51  49  92 N16       29.70R
HENDERSON NC   CLEAR     48  39  70 W7        29.98S
GREENSBORO     CLEAR     44  39  82 NW6       30.03S
ROCKY MOUNT    CLEAR     48  42  80 W6        29.97F
FAYETTEVILLE   CLEAR     48  41  76 NW5       30.02R
CHARLOTTE      CLEAR     43  37  79 NW5       30.07R
$$

VAZ100-231000-
MARINE

STATION/POSITION TIME  TEMP    WIND        PRES    WAVE   SWELL
                       AIR SEA DIR/SP/G            HT/PER HT/PER
                 (UTC) (F)     (DEG/KT/KT) (MB)    (FT/S) (FT/S)
44066 TX TWR #4  0900   61 67   10/ 27/ 31  998.7F  11/ 8
CAPE MAY NJ      0900   53 64  330/ 13/ 23 1006.0R
LEWES DE         0900   52 61  330/ 25/ 32 1006.6F
15NM E FENWICK I 0900   56 65  320/ 29/ 35 1004.5S  10/ 8   3/10
OCEAN-CITY-INLET 0900   52 62  320/ 16/ 20 1006.5S
WACHAPREAGUE VA  0900   54 60  280/  3/ 13 1009.4R
THOMAS POINT MD  0900   54 62  320/ 18/ 22 1011.1R
GOOSES REEF MD   0900   55     330/ 23/ 31 1010.4R
COVE POINT MD    0900   54     340/ 20/ 26 1010.0R
SOLOMONS ISLAND  0900      64                N/A
BISHOPS HEAD MD  0900   53 56  320/ 18/ 22 1009.2R
PINEY POINT MD   0900          340/ 27/ 30   N/A
POTOMAC MD       0900   55     330/ 23/ 29 1009.9R
CAMBRIDGE MD     0900   55 60  320/ 18/ 24 1009.2R
LEWISETTA VA     0900   54 60  330/ 17/ 24 1010.6S
RAPPAHANNOCK LGT 0900          300/ 25/ 29 1010.4R
STINGRAY PT      0900   55     310/ 23/ 29 1011.0F
YORK RVR RNG VA  0900   54     330/ 19/ 23 1010.6F
YORKTOWN VA      0900   54 65  300/ 18/ 21 1010.9F
JAMESTOWN VA     0900   53     330/ 16/ 19   N/A
DOMINION TERM VA 0900   55     330/ 22/ 31 1011.4R
KIPTOPEKE VA     0900      64  320/ 28/ 31   N/A
CHES BAY BRIDGE  0900   55 65  280/ 23/ 28 1010.5R
CAPE HENRY VA    0900   55     310/ 21/ 29 1009.5R
CHESAPEAKE LGHT  0800   56     320/ 31/ 33 1010.2F
WILLOUBY STN VA  0900   54     310/ 22/ 25 1010.1R
S CRANEY ISL VA  0900          280/ 14/ 23 1011.2S
CAPE HENRY BUOY  0900      68                N/A     7/ 6   2/11
1ST LANDING BUOY 0900   57     310/ 25/ 33 1010.4S
CAPE CHARLES BUO 0900      67                N/A     6/10   3/10
64NM E OF VA BCH 0900   60 71  310/ 27/ 31 1007.3S  12/ 6   5/11
DUCK PIER NC     0900   54 67  300/ 15/ 25 1010.5R
44100 DUCK FRF   0900      68                N/A     8/ 7   2/11
44056 DUCK FRF   0900                        N/A     5/ 9   2/11
OREGON INLET NC  0900   55 62  300/ 17/ 23 1011.0F
HATTERAS NC      0900   56 64  310/ 22/ 25 1012.5S
DIAMOND SHLS NC  0900   59     300/ 21/ 27 1011.5R   6/ 5
CAPE LOOKOUT NC  0800   57     310/ 14/ 19 1013.9F
$$



USA.gov is the U.S. government's official web portal to all federal, state and local government web resources and services.